Tracking 19219 objects as of 22-Jul-2018
HD Live streaming from Space Station
objects crossing your sky now

FENGYUN 1C DEB

Track FENGYUN 1C DEB now!
10-day predictions


NORAD ID: 30563
Int'l Code: 1999-025ALD
Perigee: 637.1 km
Apogee: 727.6 km
Inclination: 99.1 °
Period: 98.3 minutes
Semi major axis: 7053 km
RCS: 0.025 m2 (small)
Launch date: May 10, 1999
Source: People's Republic of China (PRC)
Launch site: Taiyaun Space Center, China (TSC)

Note: This is SATELLITE DEBRIS
aabbcc
Your satellite tracking list
Your tracking list is empty




NASA's NSSDC Master Catalog

Two Line Element Set (TLE):
1 30563U 99025ALD 18202.88564326  .00001649  00000-0  30572-3 0  9997
2 30563  99.0893 184.5675 0064162 117.8322 298.8686 14.65582141604831
Source of the keplerian elements: AFSPC